Regional Weather Roundup
Issued by NWS Kansas City/Pleasant Hill, MO

Home | Current Version | Previous Version | Text Only | Print | Product List | Glossary On
Versions: 1 2 3 4 5 6 7 8 9 10 11 12 13 14 15 16 17 18 19 20 21 22 23 24 25 26 27 28 29 30 31 32 33 34 35 36 37 38 39 40 41 42 43 44 45 46 47 48 49 50
878
ASUS43 KEAX 231910
RWREAX

WEATHER ROUNDUP FOR EASTERN KANSAS AND NORTHWEST MISSOURI
NATIONAL WEATHER SERVICE KANSAS CITY/PLEASANT HILL MO
200 PM CDT SUN JUL 23 2017

KSZ040-057-103>105-MOZ028-029-037-043-232000-
...KANSAS CITY METROPOLITAN AREA...

CITY           SKY/WX    TMP DP  RH WIND       PRES   REMARKS
K.C. INTL      PTSUNNY   90  74  59 VRB3      29.93S HX  99
K.C. DOWNTOWN  SUNNY     91  75  59 N5        29.91S HX 101
LEES SUMMIT    MOSUNNY   88  74  63 CALM      29.94S HX  96
OLATHE - IXD   SUNNY     87  72  60 VRB3      29.94F HX  93
OLATHE - OJC   SUNNY     86  74  67 SE6       29.94F HX  94
LAWRENCE       MOSUNNY   90  75  61 CALM      29.92F HX 100

$$

MOZ001>008-011>017-020>025-030>033-038>040-044>046-053-054-232000-
...NORTHERN AND CENTRAL MISSOURI...

CITY           SKY/WX    TMP DP  RH WIND       PRES   REMARKS
ST. JOSEPH     MOSUNNY   90  78  68 VRB5      29.92F HX 104
MOSBY          PTCLDY    88  72  58 CALM      29.92S HX  94
WHITEMAN AFB   MOSUNNY   87  70  56 CALM      29.91F HX  91
CLINTON        MOSUNNY   86  73  66 W8        29.94S HX  93
SEDALIA        MOSUNNY   88  74  63 NW5       29.93F HX  96
WARSAW         NOT AVBL
CHILLICOTHE      N/A     91  77  63 N6        29.91S HX 104
KIRKSVILLE     SUNNY     92  67  43 NW6       29.89F HX  95

$$

MOZ041-047>049-056>058-063>065-088>090-097-232000-
...EASTERN AND SOUTHERN MISSOURI...

CITY           SKY/WX    TMP DP  RH WIND       PRES   REMARKS
ST. LOUIS INTL PTSUNNY   90  67  46 VRB6      29.89F HX  93
SPIRIT OF STL  CLOUDY    87  70  56 SW7       29.88F HX  92
COLUMBIA       MOSUNNY   87  66  49 W5        29.91F
JEFFERSON CITY MOSUNNY   88  70  55 CALM      29.90F HX  93
ROLLA          CLOUDY    83  66  56 CALM      29.93F
OSAGE BEACH    CLOUDY    88  67  49 VRB5      29.93F HX  91
SPRINGFIELD    CLOUDY    86  64  47 W5        29.95F
BRANSON        PTSUNNY   91  64  40 N9        29.95F HX  93
JOPLIN         CLOUDY    91  67  44 CALM      29.95F HX  94
WEST PLAINS    MOSUNNY   95  59  30 N6        29.92F HX  94

$$

IAZ060-094-KSZ022-034>040-054-083-096-NEZ052-066-093-232000-
...KANSAS...SOUTHEAST NEBRASKA AND IOWA...

CITY           SKY/WX    TMP DP  RH WIND       PRES   REMARKS
TOPEKA         SUNNY     91  74  57 VRB5      29.93F HX 100
MANHATTAN      SUNNY     93  67  42 VRB5      29.93F HX  96
EMPORIA        SUNNY     91  68  46 VRB5      29.95F HX  95
CHANUTE        SUNNY     88  71  57 SW7G17    29.95F HX  94
WICHITA        MOSUNNY   90  69  50 CALM      29.96F HX  94
OMAHA          MOSUNNY   90  63  40 N10       29.94F HX  91
LINCOLN        SUNNY     89  69  51 NE8       29.96F HX  93
FALLS CITY     MOSUNNY   89  76  65 N8        29.92F HX 100
LAMONI         SUNNY     91  69  48 NW9       29.91F HX  96
DES MOINES     MOSUNNY   88  58  36 N15       29.91S

$$





USA.gov is the U.S. government's official web portal to all federal, state and local government web resources and services.